Inquirer Daily News

Weather

Get conditions and forecasts for any City, State, ZIP code or Country:  
Northeast Philadelphia, PA
on Sunday, February 17, 2013

Sunday
Previous Day Next Day
Daily Summary
 ActualAverage (KTTN)Record (KTTN)
Temperature
Mean Temperature °F 34°F  
Max Temperature 32°F 43°F 67°F (1976)
Min Temperature 21°F 26°F -3°F (1896)
Degree Days
Heating Degree Days 38 31  
Month to date heating degree days 545  
Since 1 July heating degree days 3491  
Cooling Degree Days 0 0  
Month to date cooling degree days 0  
Year to date cooling degree days 0  
Moisture
Dew Point 6°F   
Average Humidity 40    
Maximum Humidity 55    
Minimum Humidity 34    
Precipitation
Precipitation 0.00 in 0.08 in 1.10 in (1902)
Month to date precipitation 1.32  
Year to date precipitation 4.48  
Wind
Wind Speed 16 mph   
Max Wind Speed 25 mph   
Max Gust Speed 44 mph   
Visibility 10 miles   
Events Snow   

Key: T is trace of precipitation, MM is missing value
Source: NWS Daily Summary
Time(EST)TemperatureDew PointHumidity Pressure Visibility Wind DirectionWind SpeedGust SpeedPrecipitationEvents Conditions
12:54 AM 30.0°F 10.9°F 45% 29.77 in 10.0 miles NNW 10.4 mph - N/A   Overcast
1:54 AM 28.9°F 10.0°F 45% 29.77 in 10.0 miles NNW 16.1 mph - N/A   Overcast
2:54 AM 28.9°F 8.1°F 41% 29.76 in 10.0 miles NNW 15.0 mph 23.0 mph N/A   Overcast
3:54 AM 28.0°F 8.1°F 43% 29.75 in 10.0 miles NNW 18.4 mph 23.0 mph N/A   Mostly Cloudy
4:54 AM 28.0°F 5.0°F 38% 29.76 in 10.0 miles NW 15.0 mph 24.2 mph N/A   Clear
5:54 AM 27.0°F 5.0°F 39% 29.77 in 10.0 miles NW 13.8 mph - N/A   Clear
6:54 AM 26.1°F 5.0°F 41% 29.78 in 10.0 miles NW 16.1 mph 21.9 mph N/A   Clear
7:54 AM 26.1°F 5.0°F 41% 29.80 in 10.0 miles NW 12.7 mph 20.7 mph N/A   Clear
8:54 AM 28.0°F 6.1°F 39% 29.81 in 10.0 miles NW 13.8 mph 23.0 mph N/A   Clear
9:54 AM 30.0°F 7.0°F 38% 29.81 in 10.0 miles NNW 16.1 mph 26.5 mph N/A   Clear
10:54 AM 30.9°F 7.0°F 37% 29.82 in 10.0 miles NNW 19.6 mph 32.2 mph N/A   Partly Cloudy
11:54 AM 30.9°F 8.1°F 38% 29.82 in 10.0 miles West 20.7 mph 29.9 mph N/A   Mostly Cloudy
12:54 PM 30.0°F 6.1°F 36% 29.83 in 10.0 miles NW 18.4 mph 32.2 mph N/A   Mostly Cloudy
1:54 PM 32.0°F 6.1°F 34% 29.83 in 10.0 miles NW 19.6 mph 34.5 mph N/A   Overcast
2:54 PM 28.9°F 6.1°F 38% 29.85 in 10.0 miles NW 19.6 mph 29.9 mph N/A   Mostly Cloudy
3:54 PM 28.0°F 9.0°F 45% 29.87 in 10.0 miles NW 18.4 mph 29.9 mph N/A   Overcast
4:30 PM 26.6°F 12.2°F 55% 29.87 in 2.0 miles NW 15.0 mph 43.7 mph 0.00 in Snow Light Snow
4:39 PM 26.6°F 10.4°F 51% 29.87 in 9.0 miles WNW 19.6 mph 27.6 mph 0.00 in   Mostly Cloudy
4:54 PM 27.0°F 10.9°F 51% 29.89 in 10.0 miles WNW 16.1 mph 33.4 mph 0.00 in   Scattered Clouds
5:54 PM 27.0°F 3.9°F 37% 29.92 in 10.0 miles NW 21.9 mph 36.8 mph N/A   Partly Cloudy
6:54 PM 26.1°F 3.0°F 37% 29.96 in 10.0 miles NW 19.6 mph 27.6 mph N/A   Scattered Clouds
7:54 PM 25.0°F -0.0°F 34% 29.99 in 10.0 miles NW 16.1 mph 35.7 mph N/A   Partly Cloudy
8:54 PM 24.1°F -0.9°F 34% 30.02 in 10.0 miles WNW 17.3 mph 35.7 mph N/A   Partly Cloudy
9:54 PM 23.0°F -0.0°F 37% 30.06 in 10.0 miles NW 16.1 mph 29.9 mph N/A   Partly Cloudy
10:54 PM 21.9°F 1.0°F 40% 30.08 in 10.0 miles WNW 20.7 mph 27.6 mph N/A   Mostly Cloudy
11:54 PM 21.0°F -0.9°F 38% 30.11 in 10.0 miles NW 25.3 mph 41.4 mph N/A   Clear
Astronomy
Sunrise:06:50 AM (EST) Moon Rise:10:41 AM (EST)
Sunset:05:38 PM (EST) Moon Set:12:32 AM (EST)
Moon Phase
Feb. 17 Feb. 17 Feb. 25 Mar. 04 Mar. 11

Copyright © 2014 The Weather Underground, Inc.